Date,TemperatureHighF,TemperatureAvgF,TemperatureLowF,DewpointHighF,DewpointAvgF,DewpointLowF,HumidityHigh,HumidityAvg,HumidityLow,PressureMaxIn,PressureMinIn,WindSpeedMaxMPH,WindSpeedAvgMPH,GustSpeedMaxMPH,PrecipitationSumIn
2013-3-1,44.4,40.5,35.8,29.6,26.3,20.8,65,57,45,30.19,30.04,9,3,16,0.00
2013-3-2,39.2,33.3,29.7,20.9,18.7,-16.1,64,55,42,30.20,30.12,9,3,17,0.00
2013-3-3,44.1,33.7,28.4,19.8,15.9,12.0,65,49,28,30.92,30.09,10,4,21,0.00
2013-3-4,47.5,35.1,27.9,15.5,11.9,7.1,55,39,21,30.34,30.22,12,4,22,0.00
2013-3-5,58.1,41.4,32.0,29.6,16.5,8.7,73,39,17,30.38,30.11,7,2,11,0.00
2013-3-6,38.3,35.1,32.7,35.4,32.6,27.8,97,91,71,30.30,29.90,14,4,24,0.52
2013-3-7,51.8,41.7,34.3,31.2,26.5,22.0,77,56,34,30.46,30.30,11,3,20,0.00
2013-3-8,52.2,42.2,35.6,27.6,25.0,22.4,67,51,34,30.58,30.43,13,4,23,0.00
2013-3-9,66.6,48.3,33.8,26.7,20.9,15.6,62,38,14,30.66,30.55,8,2,12,0.00
2013-3-10,68.7,52.1,38.5,35.2,22.6,14.2,68,36,13,30.64,30.52,10,2,17,0.00
2013-3-11,61.3,51.7,43.2,50.0,45.0,35.2,98,79,62,30.57,30.24,11,2,14,0.00
2013-3-12,61.5,53.5,41.5,56.6,45.9,30.7,99,77,48,30.28,30.00,11,4,21,0.52
2013-3-13,53.2,41.9,34.2,31.0,24.2,13.4,69,51,21,30.38,30.20,11,3,21,0.00
2013-3-14,48.4,38.2,31.6,18.6,13.3,6.1,54,37,19,30.44,30.33,14,5,98,0.00
2013-3-15,59.4,45.4,32.0,33.1,20.6,8.6,56,39,21,30.40,30.09,11,3,17,0.00
2013-3-16,64.6,50.2,38.8,49.8,37.0,32.2,86,61,39,30.22,29.94,9,1,14,0.01
2013-3-17,41.9,38.3,34.0,35.1,30.0,25.3,88,72,57,30.58,30.21,6,1,10,0.00
2013-3-18,38.1,36.1,32.2,36.5,29.6,18.5,97,79,47,30.63,30.19,6,1,12,0.26
2013-3-19,61.0,46.2,35.4,41.4,29.1,4.1,99,62,16,30.23,30.02,19,3,29,0.01
2013-3-20,48.2,40.0,36.0,11.7,6.0,2.7,30,24,18,30.30,30.22,13,4,21,0.00
2013-3-21,39.9,33.4,28.6,28.0,5.8,-1.5,85,32,21,30.22,30.07,10,4,19,0.00
2013-3-22,50.7,37.5,27.7,19.7,12.7,5.3,48,37,23,30.32,30.19,12,4,21,0.00
2013-3-23,57.4,42.9,30.9,23.2,19.8,15.7,60,41,22,30.34,30.21,10,2,17,0.00
2013-3-24,45.9,37.9,32.5,33.8,23.6,19.0,98,58,36,30.31,29.96,6,1,8,0.00
2013-3-25,38.8,34.7,32.4,37.1,33.7,32.0,99,96,90,30.01,29.82,4,1,10,0.38
2013-3-26,53.8,41.4,32.9,36.9,30.4,22.0,99,69,31,30.30,30.01,9,3,17,0.01
2013-3-27,50.4,40.9,36.9,29.8,27.7,22.0,69,60,35,30.43,30.29,10,4,22,0.00
2013-3-28,48.0,42.1,36.3,30.5,28.6,24.5,66,59,46,30.54,30.39,8,3,14,0.00
2013-3-29,58.8,45.2,39.7,32.4,30.3,22.5,68,57,26,30.56,30.48,8,2,13,0.00
2013-3-30,60.1,54.0,43.9,30.6,27.6,23.0,53,37,25,30.53,30.50,4,2,6,0.00
2013-3-31,51.8,50.2,47.8,51.4,49.5,47.6,99,97,94,30.11,30.05,8,2,14,0.02